When you browse on this site, cookies collect data to enhance your experience and personalize the content and advertising you see.
Visit our Privacy Policy to learn more. By continuing to use the site, you agree to this use of cookies and data.
  • In Germany
  • List of Countries
  • For 7 days
  • Water Temperature
  • Satellite Maps
  • Weather Map
  • Weather Widgets
  • user-avatar
    Login

    Hourly Weather Calcutta

    Today, 15 December, Saturday

    Time Temperature Precipitation Wind Pressure Humidity
    00:00 +24°C° 0 mm 2 mps 763 mmHg 34%
    01:00 +23°C° 0 mm 2 mps 763 mmHg 35%
    02:00 +22°C° 0 mm 3 mps 762 mmHg 36%
    03:00 +22°C° 0 mm 4 mps 762 mmHg 37%
    04:00 +21°C° 0 mm 4 mps 762 mmHg 37%
    05:00 +21°C° 0 mm 4 mps 762 mmHg 37%
    06:00 +20°C° 0 mm 3 mps 762 mmHg 42%
    07:00 +21°C° 0 mm 3 mps 763 mmHg 41%
    08:00 +21°C° 0 mm 3 mps 763 mmHg 40%
    09:00 +22°C° 0 mm 3 mps 763 mmHg 39%
    10:00 +24°C° 0 mm 3 mps 763 mmHg 36%
    11:00 +25°C° 0 mm 3 mps 763 mmHg 34%
    12:00 +27°C° 0 mm 4 mps 763 mmHg 28%
    13:00 +27°C° 0 mm 3 mps 763 mmHg 27%
    14:00 +27°C° 0 mm 3 mps 762 mmHg 26%
    15:00 +28°C° 0 mm 2 mps 762 mmHg 25%
    16:00 +27°C° 0 mm 2 mps 762 mmHg 26%
    17:00 +26°C° 0 mm 1 mps 762 mmHg 27%
    18:00 +25°C° 0 mm 1 mps 762 mmHg 29%
    19:00 +25°C° 0 mm 1 mps 763 mmHg 29%
    20:00 +25°C° 0 mm 1 mps 763 mmHg 29%
    21:00 +24°C° 0 mm 1 mps 763 mmHg 30%
    22:00 +24°C° 0 mm 1 mps 763 mmHg 30%
    23:00 +24°C° 0 mm 2 mps 763 mmHg 30%

    Tomorrow, 16 December, Sunday

    Time Temperature Precipitation Wind Pressure Humidity
    00:00 +24°C° 0 mm 2 mps 763 mmHg 30%
    01:00 +24°C° 0 mm 3 mps 763 mmHg 29%
    02:00 +24°C° 0 mm 3 mps 763 mmHg 29%
    03:00 +22°C° 0 mm 4 mps 762 mmHg 29%
    04:00 +22°C° 0 mm 3 mps 763 mmHg 30%
    05:00 +22°C° 0 mm 3 mps 763 mmHg 30%
    06:00 +22°C° 0 mm 3 mps 763 mmHg 31%
    07:00 +22°C° 0 mm 3 mps 763 mmHg 32%
    08:00 +22°C° 0 mm 3 mps 764 mmHg 33%
    09:00 +22°C° 0 mm 3 mps 764 mmHg 34%
    10:00 +21°C° 0.2 mm 3 mps 764 mmHg 37%
    11:00 +21°C° 0.2 mm 3 mps 764 mmHg 40%
    12:00 +21°C° 0.2 mm 3 mps 764 mmHg 43%
    13:00 +20°C° 0.8 mm 3 mps 763 mmHg 50%
    14:00 +19°C° 0.8 mm 3 mps 763 mmHg 57%
    15:00 +18°C° 0.8 mm 4 mps 762 mmHg 63%
    16:00 +18°C° 0.6 mm 3 mps 762 mmHg 66%
    17:00 +18°C° 0.6 mm 3 mps 762 mmHg 70%
    18:00 +18°C° 0.6 mm 3 mps 762 mmHg 73%
    19:00 +18°C° 0.8 mm 3 mps 763 mmHg 74%
    20:00 +18°C° 0.8 mm 3 mps 763 mmHg 75%
    21:00 +18°C° 0.8 mm 3 mps 763 mmHg 76%
    22:00 +18°C° 1.4 mm 3 mps 763 mmHg 77%
    23:00 +18°C° 1.4 mm 4 mps 763 mmHg 77%

    Day after tomorrow, 17 December, Monday

    Time Temperature Precipitation Wind Pressure Humidity
    00:00 +18°C° 1.4 mm 4 mps 763 mmHg 78%
    01:00 +18°C° 0.7 mm 4 mps 763 mmHg 77%
    02:00 +18°C° 0.7 mm 4 mps 762 mmHg 77%
    03:00 +17°C° 0.7 mm 5 mps 762 mmHg 76%
    04:00 +18°C° 0.2 mm 4 mps 762 mmHg 76%
    05:00 +18°C° 0.2 mm 4 mps 762 mmHg 76%
    06:00 +18°C° 0.2 mm 4 mps 762 mmHg 76%
    07:00 +19°C° 0 mm 4 mps 763 mmHg 74%
    08:00 +19°C° 0 mm 4 mps 763 mmHg 71%
    09:00 +20°C° 0 mm 5 mps 764 mmHg 69%
    10:00 +20°C° 0 mm 5 mps 764 mmHg 69%
    11:00 +20°C° 0 mm 5 mps 764 mmHg 69%
    12:00 +20°C° 0 mm 5 mps 763 mmHg 69%
    13:00 +19°C° 0.2 mm 5 mps 763 mmHg 72%
    14:00 +19°C° 0.2 mm 5 mps 762 mmHg 75%
    15:00 +17°C° 0.2 mm 5 mps 761 mmHg 78%
    16:00 +17°C° 0.3 mm 5 mps 762 mmHg 80%
    17:00 +17°C° 0.3 mm 5 mps 762 mmHg 81%
    18:00 +17°C° 0.3 mm 5 mps 762 mmHg 82%
    19:00 +17°C° 0.5 mm 5 mps 762 mmHg 82%
    20:00 +17°C° 0.5 mm 5 mps 763 mmHg 83%
    21:00 +17°C° 0.5 mm 5 mps 763 mmHg 83%
    22:00 +16°C° 0.8 mm 5 mps 763 mmHg 84%
    23:00 +16°C° 0.8 mm 5 mps 762 mmHg 84%

    18 December, Tuesday

    Time Temperature Precipitation Wind Pressure Humidity
    00:00 +17°C° 0.8 mm 4 mps 762 mmHg 85%
    01:00 +16°C° 0.9 mm 5 mps 761 mmHg 86%
    02:00 +16°C° 0.9 mm 5 mps 761 mmHg 86%
    03:00 +16°C° 0.9 mm 5 mps 760 mmHg 87%
    04:00 +16°C° 0.2 mm 5 mps 761 mmHg 86%
    05:00 +16°C° 0.2 mm 5 mps 761 mmHg 85%
    06:00 +17°C° 0.2 mm 4 mps 761 mmHg 84%
    07:00 +16°C° 0.6 mm 5 mps 761 mmHg 84%
    08:00 +16°C° 0.6 mm 5 mps 762 mmHg 83%
    09:00 +16°C° 0.6 mm 5 mps 763 mmHg 82%
    10:00 +17°C° 0.2 mm 5 mps 762 mmHg 80%
    11:00 +19°C° 0.2 mm 5 mps 762 mmHg 78%
    12:00 +19°C° 0.2 mm 4 mps 761 mmHg 75%
    13:00 +20°C° 0 mm 5 mps 761 mmHg 72%
    14:00 +21°C° 0 mm 5 mps 760 mmHg 69%
    15:00 +22°C° 0 mm 5 mps 759 mmHg 66%
    16:00 +22°C° 0 mm 4 mps 760 mmHg 69%
    17:00 +21°C° 0 mm 4 mps 760 mmHg 72%
    18:00 +20°C° 0 mm 4 mps 760 mmHg 75%
    19:00 +19°C° 0 mm 4 mps 761 mmHg 77%
    20:00 +19°C° 0 mm 3 mps 761 mmHg 80%
    21:00 +18°C° 0 mm 3 mps 762 mmHg 82%
    22:00 +18°C° 0 mm 3 mps 761 mmHg 83%
    23:00 +17°C° 0 mm 2 mps 761 mmHg 84%

    19 December, Wednesday

    Time Temperature Precipitation Wind Pressure Humidity
    00:00 +17°C° 0 mm 2 mps 761 mmHg 84%
    01:00 +17°C° 0 mm 2 mps 761 mmHg 85%
    02:00 +17°C° 0 mm 2 mps 761 mmHg 85%
    03:00 +16°C° 0 mm 3 mps 760 mmHg 86%
    04:00 +16°C° 0 mm 2 mps 761 mmHg 86%
    05:00 +16°C° 0 mm 2 mps 761 mmHg 86%
    06:00 +16°C° 0 mm 2 mps 761 mmHg 86%
    07:00 +17°C° 0 mm 3 mps 762 mmHg 79%
    08:00 +18°C° 0 mm 3 mps 763 mmHg 72%
    09:00 +19°C° 0 mm 3 mps 763 mmHg 65%
    10:00 +21°C° 0 mm 4 mps 763 mmHg 56%
    11:00 +22°C° 0 mm 4 mps 763 mmHg 47%
    12:00 +25°C° 0 mm 4 mps 762 mmHg 38%
    13:00 +25°C° 0 mm 4 mps 762 mmHg 37%
    14:00 +26°C° 0 mm 4 mps 761 mmHg 36%
    15:00 +26°C° 0 mm 4 mps 760 mmHg 35%
    16:00 +25°C° 0 mm 3 mps 760 mmHg 39%
    17:00 +24°C° 0 mm 3 mps 761 mmHg 43%
    18:00 +21°C° 0 mm 2 mps 761 mmHg 47%
    19:00 +21°C° 0 mm 2 mps 762 mmHg 49%
    20:00 +20°C° 0 mm 2 mps 762 mmHg 51%
    21:00 +20°C° 0 mm 2 mps 763 mmHg 54%
    22:00 +19°C° 0 mm 2 mps 763 mmHg 55%
    23:00 +20°C° 0 mm 1 mps 762 mmHg 56%

    20 December, Thursday

    Time Temperature Precipitation Wind Pressure Humidity
    00:00 +19°C° 0 mm 1 mps 762 mmHg 57%
    01:00 +19°C° 0 mm 1 mps 762 mmHg 58%
    02:00 +18°C° 0 mm 2 mps 762 mmHg 59%
    03:00 +17°C° 0 mm 2 mps 761 mmHg 59%
    04:00 +17°C° 0 mm 2 mps 761 mmHg 60%
    05:00 +17°C° 0 mm 2 mps 762 mmHg 61%
    06:00 +16°C° 0 mm 2 mps 762 mmHg 62%
    07:00 +18°C° 0 mm 2 mps 762 mmHg 58%
    08:00 +19°C° 0 mm 2 mps 763 mmHg 54%
    09:00 +20°C° 0 mm 2 mps 763 mmHg 49%
    10:00 +22°C° 0 mm 3 mps 763 mmHg 44%
    11:00 +24°C° 0 mm 3 mps 762 mmHg 39%
    12:00 +26°C° 0 mm 3 mps 762 mmHg 34%
    13:00 +26°C° 0 mm 3 mps 761 mmHg 33%
    14:00 +27°C° 0 mm 4 mps 760 mmHg 31%
    15:00 +27°C° 0 mm 4 mps 759 mmHg 30%
    16:00 +25°C° 0 mm 3 mps 760 mmHg 33%
    17:00 +24°C° 0 mm 3 mps 760 mmHg 36%
    18:00 +23°C° 0 mm 2 mps 760 mmHg 38%
    19:00 +21°C° 0 mm 2 mps 760 mmHg 39%
    20:00 +21°C° 0 mm 1 mps 761 mmHg 40%
    21:00 +21°C° 0 mm 1 mps 761 mmHg 41%
    22:00 +20°C° 0 mm 1 mps 761 mmHg 42%
    23:00 +20°C° 0 mm 1 mps 761 mmHg 42%
    Show more